MXD1632 WMKK-WBGG

Flight info

Callsign MXD1632
Flight time 1h 2m
Altitude 25000
Route WMKK RWY 32R KIMAT 1 D KIMAT Y344 VPK M761 AGOBA DCT ESBAL ESBAL1A RWY 25 WBGG
Aircraft B737/M-SDFGHIRWY/C

Departure

Time 2026-04-15 08:24
Airport Kuala Lumpur International Airport (WMKK)

Arrival

Time 2026-04-15 09:26
Airport Kuching International Airport (WBGG)
Time Latitude Longitude Altitude Speed Heading
2026-04-15 08:07 2.75357 101.70775 68 ft 0 kts 327°
2026-04-15 08:12 2.75355 101.70776 68 ft 2 kts 327°
2026-04-15 08:12 2.75340 101.70785 60 ft 2 kts 327°
2026-04-15 08:12 2.75326 101.70795 64 ft 2 kts 327°
2026-04-15 08:12 2.75312 101.70804 60 ft 2 kts 327°
2026-04-15 08:13 2.75297 101.70814 58 ft 3 kts 329°
2026-04-15 08:13 2.75281 101.70820 65 ft 3 kts 358°
2026-04-15 08:13 2.75263 101.70818 77 ft 3 kts 27°
2026-04-15 08:13 2.75249 101.70807 60 ft 1 kts 57°
2026-04-15 08:15 2.75295 101.70855 61 ft 18 kts 52°
2026-04-15 08:15 2.75367 101.70953 70 ft 17 kts 55°
2026-04-15 08:16 2.75435 101.71050 67 ft 17 kts 58°
2026-04-15 08:16 2.75496 101.71142 68 ft 16 kts 57°
2026-04-15 08:16 2.75474 101.71231 67 ft 15 kts 148°
2026-04-15 08:16 2.75404 101.71295 72 ft 14 kts 98°
2026-04-15 08:17 2.75442 101.71379 68 ft 13 kts 57°
2026-04-15 08:17 2.75448 101.71454 66 ft 13 kts 145°
2026-04-15 08:17 2.75431 101.71529 69 ft 13 kts 66°
2026-04-15 08:17 2.75400 101.71599 69 ft 12 kts 149°
2026-04-15 08:18 2.75332 101.71647 69 ft 12 kts 147°
2026-04-15 08:18 2.75265 101.71694 73 ft 12 kts 146°
2026-04-15 08:18 2.75200 101.71739 68 ft 11 kts 147°
2026-04-15 08:18 2.75135 101.71783 69 ft 11 kts 146°
2026-04-15 08:19 2.75070 101.71821 67 ft 11 kts 153°
2026-04-15 08:19 2.75013 101.71867 71 ft 10 kts 133°
2026-04-15 08:19 2.75007 101.71931 72 ft 10 kts 65°
2026-04-15 08:19 2.75012 101.71939 74 ft 0 kts 59°
2026-04-15 08:21 2.75018 101.71949 68 ft 6 kts 58°
2026-04-15 08:21 2.75046 101.71991 75 ft 8 kts 52°
2026-04-15 08:21 2.75101 101.72021 73 ft 10 kts
2026-04-15 08:22 2.75154 101.71991 74 ft 1 kts 324°
2026-04-15 08:22 2.75174 101.71977 67 ft 6 kts 324°
2026-04-15 08:22 2.75221 101.71944 71 ft 11 kts 328°
2026-04-15 08:22 2.75329 101.71875 69 ft 37 kts 327°
2026-04-15 08:23 2.75718 101.71615 66 ft 96 kts 328°
2026-04-15 08:23 2.76420 101.71149 63 ft 144 kts 325°
2026-04-15 08:23 2.77342 101.70518 177 ft 171 kts 325°
2026-04-15 08:23 2.78352 101.69844 574 ft 180 kts 326°
2026-04-15 08:24 2.79396 101.69154 1124 ft 181 kts 326°
2026-04-15 08:24 2.80625 101.68603 1361 ft 206 kts 343°
2026-04-15 08:24 2.82064 101.68208 1569 ft 226 kts 343°
2026-04-15 08:24 2.83627 101.67741 1771 ft 242 kts 346°
2026-04-15 08:25 2.85319 101.67695 2124 ft 249 kts 17°
2026-04-15 08:25 2.86728 101.68652 2621 ft 249 kts 54°
2026-04-15 08:25 2.87341 101.70237 3157 ft 245 kts 77°
2026-04-15 08:25 2.87796 101.71890 3619 ft 248 kts 70°
2026-04-15 08:26 2.88423 101.73503 4091 ft 249 kts 67°
2026-04-15 08:26 2.89109 101.75105 4600 ft 251 kts 66°
2026-04-15 08:26 2.89813 101.76702 5046 ft 252 kts 66°
2026-04-15 08:26 2.90530 101.78311 5483 ft 255 kts 66°
2026-04-15 08:27 2.91259 101.79937 5938 ft 257 kts 66°
2026-04-15 08:27 2.91996 101.81577 6376 ft 259 kts 66°
2026-04-15 08:27 2.92731 101.83206 6818 ft 261 kts 66°
2026-04-15 08:27 2.93483 101.84871 7266 ft 263 kts 66°
2026-04-15 08:28 2.94242 101.86547 7703 ft 266 kts 66°
2026-04-15 08:28 2.95006 101.88236 7979 ft 268 kts 66°
2026-04-15 08:28 2.95778 101.89939 7990 ft 268 kts 66°
2026-04-15 08:28 2.96544 101.91631 7999 ft 267 kts 66°
2026-04-15 08:29 2.97313 101.93329 8289 ft 269 kts 66°
2026-04-15 08:29 2.98087 101.95037 8779 ft 271 kts 66°
2026-04-15 08:29 2.98870 101.96763 9300 ft 273 kts 66°
2026-04-15 08:29 2.99658 101.98500 9797 ft 275 kts 66°
2026-04-15 08:30 3.00449 102.00247 10242 ft 276 kts 66°
2026-04-15 08:30 3.01234 102.01978 10719 ft 277 kts 66°
2026-04-15 08:30 3.02033 102.03741 11185 ft 279 kts 66°
2026-04-15 08:30 3.02838 102.05518 11673 ft 280 kts 66°
2026-04-15 08:31 3.03647 102.07302 12138 ft 282 kts 66°
2026-04-15 08:31 3.04464 102.09106 12414 ft 287 kts 66°
2026-04-15 08:31 3.05284 102.10916 12800 ft 285 kts 66°
2026-04-15 08:31 3.06107 102.12732 13293 ft 286 kts 66°
2026-04-15 08:32 3.06929 102.14546 13808 ft 286 kts 66°
2026-04-15 08:32 3.07756 102.16369 14246 ft 288 kts 66°
2026-04-15 08:32 3.08587 102.18205 14670 ft 291 kts 66°
2026-04-15 08:32 3.09425 102.20053 15113 ft 293 kts 66°
2026-04-15 08:33 3.10268 102.21915 15558 ft 295 kts 66°
2026-04-15 08:33 3.11107 102.23766 15978 ft 297 kts 66°
2026-04-15 08:33 3.11961 102.25653 16425 ft 299 kts 66°
2026-04-15 08:33 3.12822 102.27553 16850 ft 301 kts 66°
2026-04-15 08:34 3.13688 102.29466 17246 ft 303 kts 66°
2026-04-15 08:34 3.14563 102.31398 17678 ft 305 kts 66°
2026-04-15 08:34 3.15442 102.33337 18101 ft 307 kts 66°
2026-04-15 08:34 3.16295 102.35307 18437 ft 310 kts 69°
2026-04-15 08:35 3.16974 102.37360 18789 ft 311 kts 74°
2026-04-15 08:35 3.17506 102.39460 19151 ft 312 kts 77°
2026-04-15 08:35 3.17942 102.41599 19506 ft 314 kts 79°
2026-04-15 08:35 3.18323 102.43765 19846 ft 317 kts 80°
2026-04-15 08:36 3.18701 102.45941 20204 ft 318 kts 80°
2026-04-15 08:36 3.19093 102.48101 20559 ft 320 kts 79°
2026-04-15 08:36 3.19511 102.50288 20902 ft 321 kts 79°
2026-04-15 08:36 3.19945 102.52483 21240 ft 323 kts 78°
2026-04-15 08:37 3.20393 102.54688 21578 ft 324 kts 78°
2026-04-15 08:37 3.20850 102.56903 21888 ft 326 kts 78°
2026-04-15 08:37 3.21317 102.59139 22195 ft 329 kts 78°
2026-04-15 08:37 3.21786 102.61378 22526 ft 330 kts 78°
2026-04-15 08:38 3.22260 102.63631 22849 ft 331 kts 78°
2026-04-15 08:38 3.22575 102.65127 23043 ft 332 kts 78°
2026-04-15 08:38 3.23217 102.68171 23426 ft 335 kts 78°
2026-04-15 08:38 3.23537 102.69685 23591 ft 336 kts 78°
2026-04-15 08:39 3.24022 102.71983 23831 ft 338 kts 78°
2026-04-15 08:39 3.24667 102.75040 24101 ft 340 kts 78°
2026-04-15 08:39 3.25156 102.77358 24310 ft 341 kts 78°
2026-04-15 08:39 3.25487 102.78928 24450 ft 341 kts 78°
2026-04-15 08:40 3.25977 102.81250 24658 ft 341 kts 78°
2026-04-15 08:40 3.26469 102.83585 24796 ft 345 kts 78°
2026-04-15 08:40 3.26962 102.85920 24794 ft 348 kts 78°
2026-04-15 08:40 3.27460 102.88282 24797 ft 346 kts 78°
2026-04-15 08:41 3.27952 102.90615 24788 ft 341 kts 78°
2026-04-15 08:41 3.28441 102.92933 24803 ft 341 kts 78°
2026-04-15 08:41 3.28930 102.95255 24810 ft 342 kts 78°
2026-04-15 08:41 3.29421 102.97585 24811 ft 343 kts 78°
2026-04-15 08:42 3.29913 102.99921 24812 ft 344 kts 78°
2026-04-15 08:42 3.30408 103.02266 24811 ft 345 kts 78°
2026-04-15 08:42 3.30902 103.04613 24818 ft 345 kts 78°
2026-04-15 08:42 3.31399 103.06973 24809 ft 346 kts 78°
2026-04-15 08:43 3.31896 103.09329 24806 ft 346 kts 78°
2026-04-15 08:43 3.32392 103.11684 24813 ft 346 kts 78°
2026-04-15 08:43 3.32888 103.14043 24807 ft 346 kts 78°
2026-04-15 08:43 3.33376 103.16359 24803 ft 344 kts 78°
2026-04-15 08:44 3.33869 103.18701 24797 ft 343 kts 78°
2026-04-15 08:44 3.34360 103.21032 24801 ft 342 kts 78°
2026-04-15 08:44 3.34849 103.23358 24804 ft 341 kts 78°
2026-04-15 08:44 3.35337 103.25674 24809 ft 340 kts 78°
2026-04-15 08:45 3.35824 103.27988 24812 ft 340 kts 78°
2026-04-15 08:45 3.36310 103.30298 24814 ft 340 kts 78°
2026-04-15 08:45 3.36796 103.32613 24818 ft 340 kts 78°
2026-04-15 08:45 3.37284 103.34931 24820 ft 340 kts 78°
2026-04-15 08:46 3.37772 103.37252 24814 ft 341 kts 78°
2026-04-15 08:46 3.38259 103.39575 24813 ft 342 kts 79°
2026-04-15 08:46 3.38561 103.41948 24801 ft 343 kts 88°
2026-04-15 08:46 3.38309 103.44313 24811 ft 343 kts 105°
2026-04-15 08:47 3.37565 103.46576 24820 ft 343 kts 110°
2026-04-15 08:47 3.36745 103.48795 24813 ft 344 kts 109°
2026-04-15 08:47 3.36007 103.51074 24814 ft 344 kts 105°
2026-04-15 08:47 3.35384 103.53391 24816 ft 344 kts 104°
2026-04-15 08:48 3.34791 103.55717 24818 ft 345 kts 104°
2026-04-15 08:48 3.34191 103.58043 24817 ft 345 kts 104°
2026-04-15 08:48 3.33575 103.60366 24813 ft 345 kts 104°
2026-04-15 08:48 3.32944 103.62683 24816 ft 345 kts 105°
2026-04-15 08:49 3.32312 103.64967 24819 ft 344 kts 105°
2026-04-15 08:49 3.31665 103.67280 24815 ft 344 kts 105°
2026-04-15 08:49 3.31016 103.69585 24820 ft 343 kts 105°
2026-04-15 08:49 3.30367 103.71884 24822 ft 343 kts 105°
2026-04-15 08:50 3.29718 103.74178 24821 ft 342 kts 105°
2026-04-15 08:50 3.29070 103.76470 24822 ft 342 kts 105°
2026-04-15 08:50 3.28430 103.78729 24821 ft 342 kts 105°
2026-04-15 08:50 3.27783 103.81017 24823 ft 342 kts 105°
2026-04-15 08:51 3.27136 103.83305 24822 ft 341 kts 105°
2026-04-15 08:51 3.26488 103.85595 24826 ft 341 kts 105°
2026-04-15 08:51 3.25841 103.87882 24826 ft 342 kts 105°
2026-04-15 08:51 3.25192 103.90170 24827 ft 342 kts 105°
2026-04-15 08:52 3.24542 103.92466 24828 ft 342 kts 105°
2026-04-15 08:52 3.23900 103.94737 24827 ft 343 kts 105°
2026-04-15 08:52 3.23249 103.97035 24829 ft 343 kts 105°
2026-04-15 08:52 3.22599 103.99332 24828 ft 343 kts 105°
2026-04-15 08:53 3.21948 104.01630 24831 ft 344 kts 105°
2026-04-15 08:53 3.21294 104.03938 24831 ft 344 kts 105°
2026-04-15 08:53 3.20642 104.06240 24834 ft 344 kts 105°
2026-04-15 08:53 3.19988 104.08549 24832 ft 344 kts 105°
2026-04-15 08:54 3.19335 104.10856 24831 ft 344 kts 105°
2026-04-15 08:54 2.91348 105.29192 24969 ft 32000 kts 102°
2026-04-15 08:54 2.73465 105.83121 24791 ft 346 kts 106°
2026-04-15 08:54 2.53861 106.50119 24958 ft 0 kts 110°
2026-04-15 08:55 2.22982 107.35535 24919 ft 342 kts 107°
2026-04-15 08:55 2.22834 107.37897 24892 ft 344 kts 78°
2026-04-15 08:55 2.23533 107.40204 24858 ft 348 kts 69°
2026-04-15 08:55 2.24388 107.42467 24843 ft 348 kts 70°
2026-04-15 08:56 2.25058 107.44801 24823 ft 349 kts 82°
2026-04-15 08:56 2.25113 107.47214 24839 ft 348 kts 97°
2026-04-15 08:56 2.24639 107.49585 24838 ft 348 kts 105°
2026-04-15 08:56 2.23962 107.51874 24838 ft 348 kts 107°
2026-04-15 08:57 2.23275 107.54197 24830 ft 348 kts 105°
2026-04-15 08:57 2.22697 107.56539 24826 ft 347 kts 102°
2026-04-15 08:57 2.22185 107.58895 24828 ft 346 kts 102°
2026-04-15 08:57 2.21675 107.61249 24827 ft 346 kts 102°
2026-04-15 08:58 2.21148 107.63598 24830 ft 346 kts 103°
2026-04-15 08:58 2.20051 107.68266 24833 ft 345 kts 103°
2026-04-15 08:58 2.19490 107.70598 24830 ft 345 kts 103°
2026-04-15 08:59 2.18925 107.72932 24831 ft 345 kts 103°
2026-04-15 08:59 2.18362 107.75258 24833 ft 344 kts 103°
2026-04-15 08:59 2.17804 107.77562 24831 ft 345 kts 103°
2026-04-15 08:59 2.17240 107.79893 24831 ft 345 kts 103°
2026-04-15 09:00 2.16675 107.82224 24832 ft 345 kts 103°
2026-04-15 09:00 2.16111 107.84552 24831 ft 345 kts 103°
2026-04-15 09:00 2.15510 107.86876 24829 ft 345 kts 105°
2026-04-15 09:00 2.14863 107.89194 24829 ft 346 kts 105°
2026-04-15 09:01 2.14203 107.91508 24830 ft 346 kts 106°
2026-04-15 09:01 2.13541 107.93822 24820 ft 347 kts 106°
2026-04-15 09:01 2.12866 107.96189 24805 ft 359 kts 105°
2026-04-15 09:01 2.12176 107.98627 24840 ft 371 kts 105°
2026-04-15 09:02 2.11475 108.01115 24851 ft 381 kts 105°
2026-04-15 09:02 2.10752 108.03685 24838 ft 385 kts 105°
2026-04-15 09:02 2.10033 108.06250 24827 ft 382 kts 105°
2026-04-15 09:02 2.09318 108.08804 24826 ft 380 kts 105°
2026-04-15 09:03 2.08606 108.11347 24829 ft 379 kts 105°
2026-04-15 09:03 2.07898 108.13875 24826 ft 377 kts 105°
2026-04-15 09:03 2.07191 108.16402 24828 ft 376 kts 105°
2026-04-15 09:03 2.06487 108.18916 24831 ft 375 kts 105°
2026-04-15 09:04 2.05791 108.21401 24833 ft 375 kts 105°
2026-04-15 09:04 2.05086 108.23917 24833 ft 375 kts 105°
2026-04-15 09:04 2.04383 108.26428 24829 ft 375 kts 105°
2026-04-15 09:04 2.03678 108.28941 24833 ft 376 kts 105°
2026-04-15 09:05 2.02970 108.31469 24831 ft 377 kts 105°
2026-04-15 09:05 2.02263 108.33993 24833 ft 377 kts 105°
2026-04-15 09:05 2.01553 108.36527 24834 ft 378 kts 106°
2026-04-15 09:05 2.00841 108.39067 24834 ft 379 kts 106°
2026-04-15 09:06 2.00130 108.41605 24835 ft 379 kts 106°
2026-04-15 09:06 1.99418 108.44146 24833 ft 380 kts 106°
2026-04-15 09:06 1.98706 108.46686 24831 ft 380 kts 106°
2026-04-15 09:06 1.97992 108.49233 24827 ft 380 kts 106°
2026-04-15 09:07 1.97294 108.51740 24830 ft 380 kts 105°
2026-04-15 09:07 1.96598 108.54290 24829 ft 380 kts 105°
2026-04-15 09:07 1.95908 108.56836 24829 ft 379 kts 105°
2026-04-15 09:07 1.95218 108.59388 24830 ft 379 kts 105°
2026-04-15 09:08 1.94530 108.61933 24828 ft 379 kts 105°
2026-04-15 09:08 1.93842 108.64474 24830 ft 379 kts 105°
2026-04-15 09:08 1.93155 108.67011 24831 ft 378 kts 105°
2026-04-15 09:08 1.92465 108.69552 24830 ft 378 kts 105°
2026-04-15 09:09 1.91774 108.72096 24829 ft 378 kts 105°
2026-04-15 09:09 1.91093 108.74606 24830 ft 378 kts 105°
2026-04-15 09:09 1.90394 108.77176 24831 ft 378 kts 105°
2026-04-15 09:09 1.89705 108.79712 24831 ft 379 kts 105°
2026-04-15 09:10 1.89024 108.82219 24831 ft 379 kts 105°
2026-04-15 09:10 1.88331 108.84767 24831 ft 379 kts 105°
2026-04-15 09:10 1.87642 108.87304 24829 ft 379 kts 105°
2026-04-15 09:10 1.86948 108.89857 24828 ft 379 kts 105°
2026-04-15 09:11 1.74319 109.34784 24928 ft 376 kts 105°
2026-04-15 09:11 1.66655 109.62783 25010 ft 375 kts 104°
2026-04-15 09:11 1.66124 109.65359 24908 ft 380 kts 100°
2026-04-15 09:11 1.65760 109.67965 24859 ft 379 kts 97°
2026-04-15 09:12 1.65492 109.70576 24843 ft 377 kts 96°
2026-04-15 09:12 1.65255 109.73152 24843 ft 378 kts 96°
2026-04-15 09:12 1.65013 109.75774 24842 ft 379 kts 96°
2026-04-15 09:12 1.64762 109.78394 24840 ft 378 kts 96°
2026-04-15 09:13 1.64501 109.81008 24827 ft 375 kts 97°
2026-04-15 09:13 1.64239 109.83572 24684 ft 368 kts 97°
2026-04-15 09:13 1.63977 109.86099 24220 ft 364 kts 97°
2026-04-15 09:13 1.63710 109.88633 23561 ft 367 kts 97°
2026-04-15 09:14 1.63441 109.91174 22937 ft 366 kts 97°
2026-04-15 09:14 1.63175 109.93687 22397 ft 362 kts 97°
2026-04-15 09:14 1.62912 109.96177 21858 ft 358 kts 97°
2026-04-15 09:14 1.62654 109.98610 21318 ft 355 kts 97°
2026-04-15 09:15 1.62396 110.01052 20776 ft 353 kts 97°
2026-04-15 09:15 1.62138 110.03485 20244 ft 351 kts 96°
2026-04-15 09:15 1.61883 110.05902 19726 ft 348 kts 96°
2026-04-15 09:15 1.61629 110.08304 19221 ft 346 kts 96°
2026-04-15 09:16 1.61374 110.10710 18143 ft 359 kts 96°
2026-04-15 09:16 1.61101 110.13275 16668 ft 381 kts 95°
2026-04-15 09:16 1.60812 110.15976 15291 ft 397 kts 95°
2026-04-15 09:16 1.60519 110.18716 14268 ft 399 kts 95°
2026-04-15 09:17 1.60228 110.21455 13732 ft 389 kts 94°
2026-04-15 09:17 1.60024 110.23381 10644 ft 0 kts 94°
2026-04-15 09:17 1.59889 110.25088 12463 ft 356 kts 93°
2026-04-15 09:17 1.59701 110.26941 10973 ft 0 kts 97°
2026-04-15 09:18 1.59459 110.28982 9816 ft 321 kts 96°
2026-04-15 09:18 1.59219 110.31140 9675 ft 305 kts 96°
2026-04-15 09:18 1.59019 110.33007 8009 ft 0 kts 96°
2026-04-15 09:18 1.58916 110.34031 2798 ft 279 kts 96°
2026-04-15 09:19 1.58717 110.35919 2619 ft 267 kts 96°
2026-04-15 09:19 1.58523 110.37724 2496 ft 252 kts 96°
2026-04-15 09:19 1.58344 110.39389 2392 ft 237 kts 95°
2026-04-15 09:19 1.58175 110.40965 2343 ft 220 kts 95°
2026-04-15 09:20 1.58018 110.42446 2334 ft 206 kts 95°
2026-04-15 09:20 1.57870 110.43852 2330 ft 202 kts 94°
2026-04-15 09:20 1.57723 110.45244 2342 ft 205 kts 95°
2026-04-15 09:20 1.57573 110.46663 2341 ft 205 kts 95°
2026-04-15 09:21 1.57423 110.48084 2335 ft 206 kts 95°
2026-04-15 09:21 1.57270 110.49508 2347 ft 206 kts 97°
2026-04-15 09:21 1.56878 110.50877 2314 ft 205 kts 122°
2026-04-15 09:21 1.55815 110.51712 2332 ft 199 kts 170°
2026-04-15 09:22 1.54498 110.51505 2356 ft 196 kts 217°
2026-04-15 09:22 1.53750 110.50416 2340 ft 193 kts 262°
2026-04-15 09:22 1.53772 110.49101 2344 ft 190 kts 275°
2026-04-15 09:22 1.53599 110.47790 2272 ft 195 kts 249°
2026-04-15 09:23 1.52967 110.46595 2052 ft 193 kts 243°
2026-04-15 09:23 1.52464 110.45370 1816 ft 189 kts 257°
2026-04-15 09:23 1.52131 110.44141 1580 ft 174 kts 257°
2026-04-15 09:23 1.51784 110.43044 1340 ft 161 kts 252°
2026-04-15 09:24 1.51447 110.42171 1203 ft 160 kts 251°
2026-04-15 09:24 1.51033 110.41138 997 ft 159 kts 251°
2026-04-15 09:24 1.50629 110.40111 800 ft 159 kts 250°
2026-04-15 09:24 1.50223 110.39080 597 ft 159 kts 249°
2026-04-15 09:25 1.49818 110.38052 386 ft 159 kts 248°
2026-04-15 09:25 1.49791 110.37984 373 ft 159 kts 248°
2026-04-15 09:25 1.49450 110.37083 139 ft 151 kts 245°
2026-04-15 09:25 1.49082 110.36152 58 ft 124 kts 248°
2026-04-15 09:26 1.48840 110.35558 65 ft 61 kts 249°
2026-04-15 09:26 1.48784 110.35288 62 ft 24 kts 317°
2026-04-15 09:26 1.48842 110.35254 70 ft 7 kts 335°
2026-04-15 09:26 1.48873 110.35220 69 ft 7 kts 283°
2026-04-15 09:27 1.48871 110.35172 73 ft 7 kts 251°
2026-04-15 09:27 1.48849 110.35121 73 ft 17 kts 247°
2026-04-15 09:27 1.48760 110.34895 72 ft 43 kts 249°
2026-04-15 09:27 1.48664 110.34650 81 ft 29 kts 252°
2026-04-15 09:28 1.48697 110.34571 84 ft 0 kts 329°
2026-04-15 09:28 1.48693 110.34534 83 ft 11 kts 254°
2026-04-15 09:28 1.48666 110.34455 84 ft 14 kts 253°
2026-04-15 09:28 1.48643 110.34375 87 ft 18 kts 257°
2026-04-15 09:29 1.48653 110.34325 86 ft 1 kts 334°
2026-04-15 09:29 1.48681 110.34318 87 ft 0 kts 336°
2026-04-15 09:30 1.48681 110.34317 87 ft 1 kts 336°
2026-04-15 09:30 1.48688 110.34314 86 ft 1 kts 336°
2026-04-15 09:31 1.48689 110.34314 86 ft 0 kts 336°